User: anonymous   Login
Location: Remedello Sotto
(45.2500°N, 10.3667°E)
Time: 13:54:14
(UTC+00:00)
Language:

FENGYUN 1C DEB - Orbit

View from above orbital plane
View from above orbital plane
View from above satellite
View from above satellite

Ground track
Ground track

The orbit data is extracted from the following two-line orbital elements,

1 30978U 99025BBU 24049.95494614  .00004506  00000-0  17645-2 0  9993
2 30978  98.3080 114.5565 0045565  38.0506 322.3881 14.29348707881370
Epoch (UTC): 18 February 2024 22:55:07
Eccentricity: 0.0045565
inclination: 98.3080°
perigee height: 761 km
apogee height: 826 km
right ascension of ascending node: 114.5565°
argument of perigee: 38.0506°
revolutions per day: 14.29348707
mean anomaly at epoch: 322.3881°
orbit number at epoch: 88137

The dashed part of the orbit path shows where the satellite is in the earth's shadow,  

DLR